Regional Weather Roundup
Issued by NWS

Home | Current Version | Previous Version | Graphics & Text | Print | Product List | Glossary On
Versions: 1 2 3 4 5 6 7 8 9 10 11 12 13 14 15 16 17 18 19 20 21 22 23 24 25 26 27 28 29 30 31 32 33 34 35 36 37 38 39 40 41 42 43 44 45 46 47 48 49 50
000
ASUS44 KMEG 131110
RWRTN
TENNESSEE HOURLY STATE WEATHER ROUNDUP
NATIONAL WEATHER SERVICE MEMPHIS TN
500 AM CST SAT FEB 13 2016

TNZ002-004-019-021-049-052-054-088>092-131200-
WEST TENNESSEE

CITY           SKY/WX    TMP DP  RH WIND       PRES   REMARKS
MEMPHIS INTL   PTCLDY    30  10  43 NE9       30.50R WCI  22
NWS MEMPHIS      N/A     27 N/A N/A MISG        N/A
JACKSON        PTCLDY    24  12  60 N14       30.51R WCI  12
DYERSBURG      MOCLDY    25  10  54 NE14      30.54S WCI  13
UNION CITY     CLEAR     19  10  68 N12       30.53S WCI   7
PARIS          CLEAR     18   9  68 N8        30.51R WCI   7
LEXINGTON      CLEAR     21  10  63 N10       30.48R WCI  10
$$

TNZ008-025-027-028-033-062-065-066-131200-
NORTH MIDDLE TENNESSEE

CITY           SKY/WX    TMP DP  RH WIND       PRES   REMARKS
NASHVILLE      CLEAR     23   8  52 N10       30.48R WCI  12
CLARKSVILLE    CLEAR     20  10  65 N13       30.52R WCI   7
SMYRNA         MOCLDY    23  12  63 N16       30.49R WCI  10
COOKEVILLE     PTCLDY    21  12  68 N6        30.40R WCI  14
CROSSVILLE     PTCLDY    19   8  62 N6G20     30.32R WCI  11
$$

TNZ061-075-076-078-094-096-097-131200-
SOUTH MIDDLE TENNESSEE

CITY           SKY/WX    TMP DP  RH WIND       PRES   REMARKS
FAYETTEVILLE   MOCLDY    23  14  68 N13       30.40R WCI  11
TULLAHOMA      CLEAR     19  10  68 N12       30.40R WCI   7
WINCHESTER     CLEAR     21  12  68 N10       30.40R WCI  10
MCMINNVILLE    CLEAR     19  10  68 N9        30.40R WCI   9
COLUMBIA       CLEAR     23  16  74 N9        30.44R WCI  13
SHELBYVILLE    PTCLDY    21  14  73 N6        30.44S WCI  14
$$

TNZ017-018-042-046-047-131200-
NORTHEAST TENNESSEE

CITY           SKY/WX    TMP DP  RH WIND       PRES   REMARKS
TRI CITIES     FLURRIES  21  13  71 NW15      30.28R WCI   8
$$

TNZ012-013-036-069-073-074-131200-
CENTRAL EAST TENNESSEE

CITY           SKY/WX    TMP DP  RH WIND       PRES   REMARKS
KNOXVILLE      PTCLDY    24  11  57 N7        30.36R WCI  16
OAK RIDGE      CLOUDY    25   8  48 N9        30.38R WCI  15
GATLINBURG     MOSUNNY   21   9  58 NW5       30.35R WCI  15
MORRISTOWN     CLOUDY    23   9  54 NW6G15    30.32R WCI  16
$$

TNZ083-085-099-131200-
SOUTHEAST TENNESSEE

CITY           SKY/WX    TMP DP  RH WIND       PRES   REMARKS
CHATTANOOGA    PTCLDY    27  12  53 N14       30.38R WCI  16
$$

SKY/WX REPORTED AS FAIR MEANS FEW OR NO CLOUDS BELOW
12 THOUSAND FEET.




USA.gov is the U.S. government's official web portal to all federal, state and local government web resources and services.